GFSSGP_850_dewp_141.txt.gz
Dewpoint
-5 -4 -3 -3 -6 -6 -5 -6 -11 -15 -16 -11 3 3 3 6 8 13 12 9 10 11 10 8 9 9 9 7 7 6 6 7 8 6 5 4 6 6 6 5 5 6 6 6 4 5 7 8 11
-3 -3 -3 -4 -3 -4 -7 -7 -6 -9 -14 -4 -3 -0 4 7 9 11 8 9 11 12 12 11 10 10 10 8 6 6 7 8 9 8 6 5 6 6 7 6 6 7 7 8 8 8 9 10 10
-2 -2 -3 -3 -3 -3 -4 -6 -5 -5 -8 -10 1 7 6 6 8 11 13 11 14 14 14 13 11 11 11 10 6 6 7 9 10 9 7 5 6 7 7 7 6 6 7 8 8 9 9 10 10
-2 -2 -4 -2 -1 -2 -4 -6 -8 -6 -2 2 2 1 8 10 1 10 12 11 12 14 14 14 14 14 13 11 8 7 7 9 10 10 9 7 6 7 7 7 6 5 6 7 7 8 9 10 10
-2 -3 -1 -0 -1 -3 -7 -12 -4 -3 -1 -1 -2 -7 -9 -5 3 9 4 10 9 5 7 6 10 14 13 12 9 8 9 10 11 11 10 9 7 7 6 6 6 5 5 6 7 8 9 10 10
-4 -4 -1 -0 -2 -6 -7 -8 -12 -6 -2 -5 -9 -10 -15 -15 -12 -8 4 12 15 15 15 13 14 15 15 14 11 9 10 11 11 11 11 10 8 7 7 6 5 5 5 5 6 7 8 10 9
-5 -5 -2 -3 -5 -6 -6 -10 -16 -14 -15 -14 -7 -7 -17 -15 -12 -3 4 11 11 11 13 16 16 16 15 15 14 11 9 10 11 11 11 10 10 9 8 7 6 5 5 5 6 6 7 8 7
-8 -5 -4 -5 -4 -6 -12 -10 -14 -16 -17 -17 -17 -16 -17 -13 -13 -13 -9 -10 -9 -6 4 13 14 14 14 15 15 13 10 9 9 11 11 11 11 10 9 9 8 6 5 6 6 6 6 7 7
-11 -6 -5 -5 -10 -10 -15 -14 -15 -16 -18 -16 -16 -15 -12 -13 -13 -16 -14 -13 -12 -11 -9 -3 1 7 11 13 15 14 12 11 11 10 10 10 10 10 10 9 8 7 6 6 6 6 7 7 6
-11 -7 -6 -9 -14 -16 -16 -15 -15 -18 -18 -16 -15 -12 -11 -13 -14 -15 -15 -13 -12 -10 -10 -9 -9 -9 2 12 13 14 13 12 11 10 9 9 9 9 9 9 9 8 7 7 7 7 7 7 6
-13 -10 -11 -11 -16 -18 -16 -14 -16 -17 -17 -17 -10 -7 -7 -11 -11 -11 -11 -10 -9 -10 -9 -10 -10 -9 -8 -7 10 13 14 13 12 11 10 9 9 9 9 10 10 9 8 7 8 8 8 7 6
-14 -16 -15 -17 -15 -15 -15 -15 -17 -17 -12 -12 -7 -4 -5 -7 -6 -6 -7 -7 -8 -8 -9 -10 -11 -11 -10 -8 -7 1 8 12 14 13 12 11 9 9 10 10 10 9 8 7 7 8 8 8 6
-15 -12 -11 -11 -13 -15 -15 -16 -17 -12 -8 -7 -6 -7 -6 -5 -5 -5 -6 -6 -7 -8 -9 -9 -10 -12 -12 -12 -11 -9 -7 -2 8 13 14 13 11 10 10 10 10 10 9 8 7 8 9 8 7
-11 -10 -11 -12 -12 -12 -14 -15 -17 -7 -6 -5 -6 -5 -5 -5 -5 -6 -7 -7 -7 -7 -8 -8 -8 -9 -10 -11 -11 -12 -11 -8 -4 7 12 14 14 12 11 10 10 10 9 9 8 8 8 9 8
-11 -10 -11 -13 -13 -13 -15 -15 -14 -5 -5 -4 -3 -4 -5 -5 -6 -6 -6 -7 -7 -8 -8 -9 -9 -9 -9 -9 -10 -10 -11 -11 -10 -7 8 10 14 14 13 11 10 9 9 9 9 8 9 10 9
-8 -9 -10 -13 -12 -14 -16 -12 -3 -3 -5 -3 -4 -4 -5 -6 -6 -6 -6 -6 -6 -7 -8 -8 -8 -8 -8 -8 -9 -9 -10 -10 -11 -10 -8 5 11 14 14 14 12 11 10 9 9 9 10 10 10
-8 -8 -8 -10 -14 -15 -15 -7 -3 -4 -4 -3 -4 -4 -5 -5 -6 -6 -6 -6 -6 -7 -7 -7 -7 -7 -7 -7 -7 -7 -8 -8 -9 -10 -10 -8 0 11 13 13 14 13 11 10 10 10 11 11 11
-8 -7 -9 -13 -17 -15 -13 -2 -3 -3 -3 -3 -4 -4 -5 -5 -5 -5 -5 -6 -6 -6 -6 -6 -6 -6 -6 -6 -5 -5 -5 -6 -7 -8 -9 -9 -8 -5 7 12 13 13 12 11 10 11 12 12 11
-8 -9 -10 -13 -15 -12 -11 -2 -2 -3 -3 -3 -3 -4 -4 -4 -5 -6 -6 -5 -6 -5 -5 -5 -5 -5 -5 -5 -5 -4 -3 -3 -5 -5 -7 -9 -7 -6 -5 4 12 13 13 12 11 11 12 13 12
-7 -6 -8 -11 -11 -10 -5 -1 -2 -3 -3 -3 -3 -3 -4 -4 -5 -5 -5 -5 -5 -5 -5 -5 -5 -5 -5 -4 -4 -3 -2 -1 0 -0 -3 -6 -7 -6 -5 -5 3 12 13 12 12 11 12 13 12
-6 -8 -9 -9 -8 -8 -4 -2 -1 -2 -3 -3 -3 -3 -3 -4 -5 -5 -5 -5 -5 -5 -5 -5 -5 -5 -5 -4 -4 -3 -2 -1 0 2 1 -1 -3 -4 -4 -6 -4 9 10 11 12 11 11 12 13
-4 -9 -9 -7 -5 -4 -8 -4 0 -1 -1 -3 -3 -3 -3 -4 -5 -5 -5 -5 -5 -5 -5 -5 -5 -5 -5 -4 -3 -3 -2 -1 -0 1 1 1 0 -2 -3 -7 -7 -4 11 12 12 13 11 11 12
-6 -7 -5 -4 -4 -3 -3 -4 -1 -1 0 -1 -3 -3 -4 -4 -5 -5 -5 -5 -5 -5 -5 -5 -5 -4 -5 -4 -3 -3 -2 -2 -1 0 1 2 1 1 -1 -4 -9 -7 6 11 7 8 12 11 11
-6 -4 -3 -2 -3 0 -3 -4 -4 1 0 -1 -3 -3 -3 -4 -5 -5 -5 -5 -5 -5 -5 -5 -5 -5 -5 -4 -4 -3 -2 -2 -1 -0 1 2 4 5 5 -2 -7 1 6 8 10 11 11 11 11
-5 -4 1 1 3 -1 -2 -2 -2 -0 -2 -2 -3 -3 -4 -4 -5 -5 -5 -5 -5 -5 -5 -5 -5 -5 -5 -4 -4 -3 -3 -2 -1 -1 1 2 4 4 6 6 6 8 6 8 10 10 12 12 11
-3 -3 1 2 3 3 -1 2 1 -1 -3 -3 -3 -4 -4 -4 -5 -5 -5 -5 -5 -5 -5 -5 -5 -5 -5 -5 -5 -5 -3 -3 -1 -1 -0 1 3 4 6 7 7 7 7 6 5 9 9 8 12
-3 -1 -4 0 1 3 1 1 1 -2 -2 -3 -3 -4 -4 -4 -5 -5 -5 -5 -5 -5 -5 -5 -5 -5 -6 -6 -6 -5 -4 -3 -3 -2 -1 1 2 4 6 8 7 8 7 5 4 10 9 9 8
-4 -3 2 3 4 5 2 3 1 1 0 -2 -4 -4 -4 -4 -5 -5 -6 -7 -6 -5 -4 -4 -5 -5 -6 -6 -6 -6 -5 -4 -4 -3 -2 -0 0 2 5 7 8 8 8 4 7 9 9 10 9
-1 0 1 2 3 4 2 2 0 1 -1 -3 -3 -4 -4 -5 -5 -5 -8 -11 -9 -6 -4 -4 -5 -5 -5 -6 -7 -7 -6 -5 -5 -5 -4 -3 -3 -2 0 5 7 8 9 8 8 9 9 9 8
0 1 3 6 3 4 1 1 -2 -1 -3 -3 -3 -4 -5 -6 -7 -7 -11 -14 -13 -13 -7 -4 -4 -4 -5 -5 -6 -7 -5 -5 -4 -5 -5 -6 -5 -4 -2 1 4 5 6 7 8 8 7 8 8

GFSSGP_850_dewp_147.txt.gz
Dewpoint
-5 -4 -4 -4 -5 -8 -5 -6 -10 -5 5 5 7 8 9 10 11 14 15 15 14 12 12 11 11 11 11 11 11 11 10 10 9 7 3 2 3 4 4 4 5 6 6 6 6 5 6 8 7
-5 -4 -4 -5 -5 -10 -7 -8 -5 -6 -1 3 7 6 7 10 13 15 14 15 14 13 12 11 11 12 12 11 11 11 10 10 10 9 7 5 4 4 5 4 5 6 6 5 5 4 6 6 9
-4 -3 -4 -3 -3 -5 -5 -5 -8 -4 -2 -5 8 9 8 0 12 15 15 15 14 13 13 13 12 12 12 12 11 11 10 10 10 10 9 8 6 6 5 6 5 6 6 6 6 7 7 8 9
-3 -3 -4 -2 -2 -5 -7 -7 -9 -5 3 5 6 2 -5 11 13 14 15 14 13 13 13 14 14 14 13 13 12 11 12 12 11 11 10 9 8 8 6 7 6 5 6 6 7 7 8 8 9
-4 -3 -2 -1 -2 -5 -7 -10 -5 -2 -4 -1 -7 -9 -4 7 12 15 15 15 13 13 13 13 14 14 14 13 12 13 12 12 12 11 11 11 10 9 8 7 7 6 6 6 6 7 7 8 9
-4 -4 -2 -2 -2 -5 -7 -10 -13 -10 -10 -12 -11 -9 -7 -1 5 12 14 14 14 13 13 13 14 14 14 15 14 13 13 13 13 12 11 11 11 10 9 9 8 7 6 6 6 6 7 7 8
-5 -4 -2 -2 -3 -6 -9 -12 -15 -14 -12 -13 -11 -11 -9 -5 -3 -0 4 6 8 12 13 13 11 11 12 13 14 14 13 12 13 14 12 11 12 12 11 10 9 9 7 6 5 5 6 6 8
-6 -5 -4 -4 -4 -7 -14 -12 -15 -17 -15 -16 -16 -12 -9 -6 -7 -8 -8 -8 -8 -4 0 2 5 8 12 13 12 13 13 13 13 13 13 13 12 12 12 11 10 9 8 7 6 6 6 7 8
-8 -5 -3 -4 -6 -11 -15 -17 -16 -17 -13 -10 -10 -10 -8 -6 -7 -8 -9 -10 -11 -12 -11 -11 -11 -11 -10 -6 5 10 12 12 13 12 13 13 13 13 13 12 11 11 10 8 7 6 7 7 8
-9 -6 -5 -7 -13 -16 -16 -15 -16 -16 -12 -5 -4 -6 -7 -7 -8 -11 -13 -14 -14 -13 -13 -13 -13 -12 -12 -13 -13 -12 -8 2 7 11 12 12 12 13 13 13 12 12 11 10 8 7 7 8 7
-11 -9 -10 -10 -13 -16 -17 -15 -16 -17 -14 -8 -4 -5 -6 -7 -9 -10 -11 -11 -11 -11 -10 -11 -12 -12 -12 -12 -12 -12 -13 -14 -14 -8 3 8 12 11 11 12 13 13 12 11 10 8 7 7 7
-14 -15 -14 -15 -13 -15 -16 -15 -8 -3 -2 -4 -5 -5 -6 -7 -8 -9 -9 -8 -9 -9 -9 -9 -10 -10 -11 -11 -12 -12 -13 -12 -12 -13 -13 -12 -7 9 12 11 11 12 13 12 11 10 8 7 7
-13 -12 -11 -11 -12 -12 -14 -14 -5 -1 -3 -4 -5 -6 -7 -7 -7 -7 -7 -7 -8 -8 -9 -9 -10 -10 -10 -11 -11 -12 -12 -12 -11 -11 -11 -11 -12 -11 1 11 12 12 13 13 12 11 10 7 7
-11 -10 -11 -12 -12 -12 -14 -8 -7 -2 -3 -4 -5 -6 -6 -6 -7 -7 -7 -8 -8 -8 -9 -9 -9 -10 -10 -10 -10 -11 -11 -11 -11 -10 -10 -10 -10 -11 -11 -3 9 13 12 13 13 12 11 9 8
-10 -10 -11 -13 -12 -12 -13 -8 -2 -2 -3 -4 -5 -5 -6 -6 -6 -7 -7 -7 -7 -8 -8 -9 -9 -9 -9 -9 -9 -9 -9 -9 -10 -9 -9 -9 -9 -9 -10 -9 -5 5 10 13 12 13 12 11 10
-9 -9 -10 -13 -12 -14 -13 -10 -3 -3 -3 -4 -4 -4 -5 -5 -6 -6 -6 -7 -7 -7 -8 -8 -8 -8 -8 -8 -8 -8 -8 -8 -8 -7 -8 -8 -8 -8 -9 -10 -8 -4 8 9 13 12 13 12 11
-11 -12 -9 -10 -14 -14 -13 -8 -3 -3 -3 -4 -4 -4 -4 -5 -6 -6 -6 -6 -6 -6 -7 -7 -7 -7 -7 -7 -7 -7 -7 -7 -6 -6 -6 -6 -6 -6 -6 -7 -10 -10 -4 8 9 13 12 12 11
-9 -9 -8 -8 -14 -14 -11 -6 -3 -3 -3 -3 -4 -4 -4 -5 -5 -5 -6 -6 -5 -5 -6 -6 -6 -6 -6 -6 -6 -5 -5 -5 -5 -5 -5 -5 -4 -4 -4 -5 -7 -9 -8 -3 9 11 13 12 13
-10 -8 -8 -9 -11 -9 -9 -11 -3 -3 -3 -3 -3 -4 -4 -5 -5 -5 -5 -5 -5 -5 -5 -5 -5 -5 -5 -5 -5 -5 -5 -5 -5 -5 -5 -4 -2 -1 -1 -1 -3 -6 -7 -7 -4 9 12 13 13
-7 -7 -6 -7 -9 -9 -9 -8 -4 -3 -3 -3 -3 -3 -4 -5 -5 -5 -5 -5 -5 -5 -4 -4 -4 -4 -5 -5 -5 -5 -5 -5 -5 -5 -5 -4 -2 -1 0 1 -1 -2 -4 -5 -3 -4 9 10 12
-6 -6 -6 -6 -8 -8 -7 -7 -3 -3 -3 -3 -3 -3 -4 -5 -5 -5 -5 -4 -4 -4 -4 -4 -4 -5 -5 -5 -5 -5 -5 -5 -5 -4 -3 -2 -1 -1 -0 1 2 1 1 -1 -1 3 4 7 9
-4 -7 -6 -6 -6 -4 -8 -4 -4 -2 -2 -3 -3 -3 -4 -5 -5 -5 -4 -4 -4 -4 -4 -4 -4 -5 -5 -5 -5 -6 -5 -5 -5 -4 -4 -3 -2 -1 -0 1 2 3 2 1 -2 -2 1 5 7
-6 -7 -6 -5 -5 -5 -5 -5 -5 -1 -1 -2 -3 -3 -4 -5 -5 -4 -5 -4 -4 -4 -4 -4 -4 -4 -5 -5 -6 -6 -6 -6 -5 -5 -5 -3 -2 -1 -0 1 1 2 4 4 3 -3 -4 4 8
-7 -8 -3 -2 -4 -2 -5 -5 -4 -1 -0 -1 -3 -3 -3 -5 -5 -4 -6 -4 -3 -3 -4 -4 -4 -4 -4 -5 -6 -6 -7 -6 -6 -6 -5 -4 -2 -0 0 1 2 2 3 4 5 2 -3 1 10
-8 -5 -0 1 2 -0 -4 -4 -4 -2 -1 -1 -2 -3 -3 -5 -5 -5 -7 -6 -4 -3 -4 -4 -3 -4 -4 -4 -6 -6 -7 -7 -7 -6 -5 -4 -3 -1 1 1 2 2 3 5 6 4 -0 0 10
-5 -5 -1 2 1 0 -2 -1 -0 -1 -2 -2 -3 -3 -4 -5 -5 -6 -9 -9 -8 -4 -4 -5 -3 -3 -4 -4 -5 -6 -7 -7 -7 -7 -6 -5 -4 -3 -2 -0 2 3 4 5 7 7 4 2 9
-3 -3 -6 -1 -1 5 1 3 1 -2 -2 -2 -3 -3 -4 -4 -5 -7 -11 -13 -12 -8 -7 -8 -4 -4 -7 -4 -4 -6 -7 -7 -7 -6 -6 -6 -4 -3 -2 -1 1 3 4 5 6 7 7 8 9
-3 -4 1 3 5 6 2 2 2 1 0 -2 -2 -3 -4 -4 -5 -8 -14 -16 -18 -19 -14 -13 -8 -10 -18 -7 -4 -5 -6 -6 -6 -6 -6 -6 -5 -3 -2 -1 -0 2 3 4 5 7 8 8 8
-0 0 2 2 4 6 5 3 1 2 1 -0 -3 -4 -4 -5 -6 -9 -16 -18 -20 -21 -20 -19 -20 -23 -24 -25 -13 -4 -4 -5 -6 -6 -6 -6 -5 -6 -5 -4 -2 1 0 -1 -0 3 6 7 8
-2 -2 -0 5 4 5 5 5 -1 0 0 -1 -3 -4 -4 -6 -7 -10 -16 -19 -23 -24 -22 -23 -25 -26 -28 -28 -29 -23 -10 -4 -4 -4 -5 -6 -6 -5 -5 -5 -4 -4 -3 -3 -4 -2 0 4 5

GFSSGP_850_dewp_150.txt.gz
Dewpoint
-8 -4 -4 -3 -4 -9 -8 -6 -8 -3 2 4 4 5 10 11 13 15 15 15 16 16 16 13 13 12 12 11 12 11 10 9 8 6 4 4 5 6 7 6 6 5 6 6 7 7 7 9 8
-8 -3 -3 -4 -5 -9 -8 -6 -6 -0 4 4 5 7 8 11 13 15 15 15 15 15 13 12 12 12 12 11 11 12 11 10 9 8 7 6 6 6 6 5 4 4 5 6 6 6 5 8 7
-6 -3 -4 -5 -7 -11 -7 -6 -6 -3 -1 1 6 5 4 7 9 14 14 15 14 13 13 12 12 12 12 12 12 11 11 11 10 9 8 8 7 6 6 6 5 5 5 5 5 5 6 7 9
-2 -3 -4 -4 -6 -5 -6 -5 -5 -0 -2 2 1 1 5 6 12 14 14 14 14 14 14 14 14 14 13 13 12 11 11 12 11 10 10 9 8 7 7 7 6 6 5 5 6 6 7 8 9
-3 -4 -4 -4 -4 -6 -7 -7 -3 -3 -0 2 -3 1 4 6 12 13 14 15 14 14 14 14 14 14 14 13 13 13 12 12 12 11 11 11 10 9 8 8 8 7 6 6 7 7 7 7 8
-6 -5 -5 -4 -5 -6 -9 -8 -4 -3 -3 -6 -3 1 2 2 3 9 12 13 13 13 13 13 13 13 13 14 14 14 12 12 12 13 11 11 12 11 10 9 9 8 7 6 6 7 8 8 8
-7 -8 -6 -6 -5 -5 -8 -9 -7 -6 -7 -8 -6 -4 -0 0 -0 -0 3 6 8 11 11 11 10 10 10 11 12 13 13 13 12 11 13 12 12 12 12 11 10 9 8 7 7 7 7 7 7
-6 -8 -7 -6 -5 -5 -11 -13 -12 -8 -11 -10 -8 -6 -2 -0 -4 -5 -7 -7 -5 -1 1 1 -1 -1 2 7 9 10 11 12 13 12 12 12 12 12 12 12 12 10 10 9 7 7 8 8 7
-7 -9 -9 -6 -6 -9 -15 -14 -15 -14 -11 -5 -3 -3 -2 -3 -4 -4 -6 -10 -11 -12 -12 -13 -13 -13 -12 -12 -12 -10 -7 -3 4 9 12 12 13 13 13 13 13 12 11 10 9 8 8 8 7
-11 -10 -9 -8 -9 -13 -16 -15 -16 -15 -10 -5 -4 -3 -3 -4 -4 -5 -9 -11 -12 -12 -12 -13 -13 -13 -13 -13 -13 -14 -14 -14 -14 -13 -6 8 11 12 12 13 13 13 12 12 11 10 9 9 11
-12 -10 -8 -11 -13 -15 -16 -15 -16 -16 -14 -6 -6 -4 -4 -4 -5 -6 -7 -10 -10 -11 -10 -11 -12 -12 -12 -12 -12 -12 -12 -13 -13 -13 -14 -13 -10 1 11 13 13 12 12 12 12 11 10 12 13
-13 -14 -13 -14 -13 -15 -14 -15 -8 -7 -3 -3 -4 -4 -4 -4 -5 -6 -6 -8 -9 -10 -10 -10 -10 -10 -11 -11 -11 -12 -12 -12 -12 -12 -12 -13 -13 -13 -10 -1 11 12 11 12 12 12 13 14 13
-14 -14 -14 -13 -13 -13 -14 -14 -8 -3 -4 -4 -4 -4 -5 -5 -4 -5 -6 -7 -8 -9 -9 -9 -10 -10 -10 -10 -11 -11 -11 -11 -11 -11 -11 -11 -12 -12 -12 -12 -4 5 13 12 11 13 12 13 14
-12 -13 -14 -14 -14 -13 -14 -10 -8 -3 -4 -4 -4 -4 -4 -4 -4 -4 -5 -7 -8 -8 -9 -9 -9 -9 -9 -9 -10 -10 -10 -10 -10 -10 -10 -10 -10 -10 -11 -10 -10 -5 6 12 13 11 13 12 12
-14 -14 -17 -16 -15 -15 -14 -10 -10 -3 -4 -4 -4 -4 -4 -4 -4 -4 -6 -6 -7 -7 -8 -8 -8 -8 -8 -8 -9 -9 -9 -9 -9 -9 -8 -8 -8 -8 -8 -9 -9 -9 -5 10 13 13 12 13 13
-14 -11 -9 -12 -12 -13 -13 -12 -5 -4 -4 -4 -4 -4 -4 -4 -4 -4 -6 -6 -7 -7 -7 -7 -7 -7 -7 -8 -7 -7 -6 -6 -6 -5 -5 -6 -6 -6 -6 -5 -6 -5 -4 3 10 12 12 12 12
-12 -10 -10 -11 -13 -13 -12 -10 -4 -4 -4 -4 -4 -4 -4 -4 -4 -4 -5 -6 -6 -6 -6 -7 -6 -6 -7 -7 -6 -6 -5 -4 -4 -4 -3 -2 -4 -4 -3 -5 -6 -5 -5 -1 6 9 12 13 13
-9 -10 -10 -9 -12 -13 -12 -11 -5 -4 -4 -4 -4 -4 -4 -4 -4 -4 -4 -5 -5 -5 -5 -5 -5 -5 -5 -5 -5 -4 -4 -3 -3 -2 -2 -2 -3 -4 -3 -1 -1 -3 2 3 3 4 9 12 13
-10 -9 -8 -9 -10 -9 -8 -9 -10 -5 -4 -4 -4 -4 -4 -4 -4 -4 -4 -4 -4 -4 -4 -4 -4 -4 -5 -4 -4 -4 -4 -4 -4 -2 -3 -3 -2 -2 -0 -0 -0 1 2 4 5 5 7 8 12
-8 -6 -5 -6 -7 -8 -7 -7 -10 -6 -5 -5 -4 -4 -4 -4 -4 -4 -4 -3 -4 -3 -4 -3 -4 -4 -4 -4 -4 -4 -4 -3 -3 -3 -2 -2 -3 -2 -1 0 1 1 2 3 3 5 6 6 8
-4 -3 -3 -3 -6 -7 -6 -5 -7 -7 -5 -4 -4 -4 -3 -4 -4 -4 -4 -3 -3 -3 -4 -4 -4 -4 -4 -4 -4 -4 -4 -3 -3 -4 -4 -4 -3 -2 -1 -1 -0 1 1 2 3 4 5 6 7
-4 -7 -5 -5 -4 -3 -7 -3 -8 -6 -4 -4 -3 -3 -3 -4 -4 -4 -4 -3 -3 -3 -4 -4 -3 -3 -4 -4 -5 -5 -4 -4 -5 -5 -5 -4 -3 -2 -1 -1 -0 0 1 2 3 3 4 5 6
-6 -7 -6 -5 -4 -4 -5 -4 -7 -5 -4 -4 -4 -3 -3 -4 -4 -4 -4 -3 -3 -3 -4 -3 -3 -4 -4 -4 -5 -5 -6 -5 -6 -6 -5 -5 -3 -1 -0 -0 1 1 1 2 2 3 3 4 5
-7 -6 -5 -4 -3 -1 -5 -5 -6 -3 -3 -3 -3 -3 -3 -4 -4 -4 -5 -4 -3 -3 -4 -3 -4 -4 -5 -5 -5 -5 -6 -6 -6 -6 -6 -6 -4 -2 -1 -1 0 1 2 2 2 2 3 4 5
-5 -3 1 0 1 0 -6 -3 -5 -3 -2 -2 -2 -3 -3 -4 -4 -4 -6 -6 -5 -4 -5 -7 -4 -6 -7 -4 -4 -5 -6 -7 -7 -7 -7 -6 -5 -3 -2 -2 -1 1 1 2 3 3 4 5 5
-6 -4 -0 2 -2 0 -2 -1 -1 -1 -2 -2 -2 -2 -3 -4 -4 -5 -6 -8 -9 -8 -8 -10 -7 -14 -12 -6 -5 -4 -5 -6 -7 -7 -7 -6 -6 -6 -4 -3 -2 -1 1 3 4 4 5 6 5
-4 -2 -5 -1 -1 2 -1 1 -1 -1 -1 -1 -1 -2 -2 -3 -3 -5 -8 -15 -18 -17 -14 -15 -16 -25 -18 -12 -7 -4 -5 -5 -6 -6 -7 -8 -7 -7 -6 -4 -4 -1 -0 1 3 4 5 6 6
-6 -6 0 1 3 2 -1 -1 1 1 1 0 -0 -1 -2 -4 -4 -6 -11 -17 -20 -21 -19 -20 -24 -29 -29 -21 -12 -5 -4 -4 -5 -5 -6 -7 -7 -7 -6 -6 -5 -3 -2 1 2 3 4 4 6
-2 -2 -2 1 3 3 3 0 2 4 3 3 0 -1 -2 -3 -5 -9 -15 -19 -24 -23 -22 -24 -27 -29 -30 -29 -26 -16 -11 -6 -4 -4 -5 -5 -6 -6 -6 -6 -5 -4 -2 -2 -1 1 2 1 2
-6 -4 -4 3 2 3 5 5 0 3 2 2 0 -1 -3 -5 -6 -11 -16 -21 -26 -24 -26 -28 -29 -30 -31 -31 -29 -26 -24 -25 -24 -20 -18 -12 -7 -5 -6 -5 -4 -4 -4 -4 -3 -3 -1 -2 -1

GFSSGP_850_dewp_153.txt.gz
Dewpoint
-11 -1 -2 -3 -4 -9 -10 -10 -11 -8 1 1 0 4 12 13 14 16 14 15 15 16 15 13 13 12 12 12 11 11 10 9 8 7 6 8 10 11 11 10 9 9 8 8 8 8 8 7 9
-14 -2 -3 -4 -5 -6 -11 -9 -11 -6 2 5 7 8 9 12 13 15 14 15 15 15 15 13 13 12 11 11 11 11 11 10 9 8 7 7 8 10 11 10 8 7 7 8 8 8 7 6 8
-11 -3 -4 -5 -6 -8 -7 -8 -8 -0 1 2 4 5 7 9 11 14 14 14 12 13 13 12 12 12 12 12 11 11 11 11 10 10 9 9 8 10 10 9 7 6 7 7 8 8 6 7 7
-5 -4 -5 -4 -6 -8 -7 -7 -8 -3 -4 0 1 7 7 7 10 14 13 9 10 11 14 14 14 13 13 13 13 12 11 11 11 10 10 10 10 10 9 7 7 6 6 6 6 6 6 7 8
-7 -5 -3 -4 -6 -7 -8 -7 -6 -4 -5 -1 -3 5 8 6 12 7 10 11 12 14 14 14 14 14 14 14 14 13 12 11 11 11 11 10 10 10 9 9 8 7 7 6 6 7 7 7 8
-8 -8 -4 -4 -6 -7 -9 -7 -5 -5 -2 -2 -3 5 6 6 5 6 8 12 12 12 12 12 12 12 12 12 13 13 14 13 12 11 11 11 11 11 11 10 10 9 8 7 7 7 8 8 8
-10 -7 -6 -7 -6 -5 -8 -7 -6 -4 -5 -6 -1 1 4 4 3 3 4 7 9 9 9 9 9 8 10 10 11 11 11 12 13 12 12 12 12 11 11 11 11 10 10 9 7 7 7 8 8
-11 -10 -8 -7 -6 -5 -9 -9 -7 -6 -8 -8 -6 -1 3 2 1 -1 -1 -2 -6 -5 -3 -3 -6 -9 -10 -8 -5 -1 4 6 9 11 12 12 12 12 12 12 12 11 11 10 9 8 7 7 8
-12 -9 -8 -9 -7 -7 -11 -10 -10 -11 -8 -4 -3 -1 0 -1 -2 -2 -2 -2 -3 -11 -12 -13 -14 -14 -14 -14 -13 -13 -13 -13 -13 -12 -10 3 11 12 13 13 13 12 12 11 11 10 9 8 8
-14 -8 -8 -9 -9 -9 -12 -12 -12 -8 -6 -5 -4 -2 -3 -3 -3 -4 -4 -3 -4 -10 -12 -13 -14 -14 -14 -13 -13 -13 -13 -13 -14 -14 -14 -13 -14 -9 5 11 12 12 12 12 11 10 10 10 9
-13 -10 -10 -11 -12 -13 -14 -13 -13 -12 -10 -8 -6 -5 -4 -4 -4 -5 -4 -3 -3 -3 -8 -11 -12 -12 -12 -12 -12 -13 -12 -13 -13 -12 -12 -12 -12 -13 -13 -10 9 13 13 12 13 12 10 10 11
-14 -14 -14 -13 -14 -13 -14 -14 -13 -9 -4 -5 -5 -5 -5 -5 -5 -5 -4 -4 -3 -2 -5 -10 -10 -11 -11 -11 -11 -11 -11 -11 -11 -12 -11 -11 -11 -12 -12 -10 0 -6 11 13 13 13 12 13 12
-14 -15 -15 -16 -15 -14 -15 -14 -13 -5 -5 -5 -5 -5 -5 -5 -5 -4 -4 -3 -3 -3 -4 -9 -9 -10 -10 -10 -10 -10 -10 -9 -10 -10 -10 -10 -10 -11 -11 -12 -10 -6 -1 2 12 13 13 13 12
-12 -14 -15 -15 -16 -16 -14 -16 -9 -6 -5 -5 -5 -5 -5 -5 -4 -4 -3 -3 -3 -3 -3 -8 -9 -9 -9 -9 -9 -9 -8 -8 -8 -7 -5 -8 -8 -8 -8 -8 -6 -2 3 5 5 12 13 13 13
-14 -13 -15 -16 -16 -16 -15 -14 -10 -7 -5 -6 -6 -5 -5 -4 -4 -3 -3 -3 -3 -3 -2 -6 -8 -8 -8 -8 -8 -7 -5 -7 -6 -4 -4 -4 -3 -3 -2 -0 -2 2 4 3 3 0 9 13 13
-12 -13 -11 -14 -14 -14 -14 -11 -12 -5 -6 -6 -5 -5 -4 -4 -4 -3 -3 -4 -4 -3 -3 -6 -7 -7 -7 -7 -7 -4 -3 -4 -1 -0 0 1 2 2 -0 1 3 3 3 4 6 6 7 9 13
-12 -10 -12 -11 -13 -13 -12 -11 -6 -5 -6 -6 -6 -5 -5 -4 -4 -3 -3 -3 -3 -3 -5 -4 -5 -6 -7 -6 -4 -2 -1 -1 -1 -1 0 1 1 1 1 0 -1 0 2 4 5 5 6 8 10
-10 -9 -10 -11 -13 -12 -12 -12 -9 -5 -6 -6 -6 -6 -5 -5 -4 -3 -3 -2 -2 -2 -2 -2 -1 -2 -5 -3 -3 -2 -1 -1 -1 -1 -1 -0 -0 0 0 0 0 1 -0 2 4 5 5 5 7
-8 -10 -10 -12 -13 -10 -8 -9 -11 -8 -6 -6 -6 -6 -5 -4 -4 -4 -2 -2 -2 -1 -1 -1 -1 -1 -2 -2 -2 -2 -2 -2 -2 -2 -1 -1 -1 -2 -2 -1 -0 0 1 2 3 5 6 5 5
-10 -9 -9 -10 -11 -9 -7 -8 -10 -10 -6 -6 -6 -6 -5 -4 -4 -4 -3 -2 -1 -1 -1 -1 -2 -1 -2 -2 -2 -2 -2 -2 -2 -2 -2 -2 -2 -2 -2 -2 -1 -0 1 1 2 3 4 6 6
-7 -6 -6 -6 -7 -7 -6 -6 -9 -11 -10 -6 -6 -5 -5 -3 -4 -3 -3 -2 -1 -1 -1 -2 -1 -2 -2 -3 -3 -2 -3 -3 -3 -3 -3 -3 -3 -3 -3 -2 -1 -1 -0 0 1 2 2 4 6
-6 -9 -8 -6 -5 -5 -9 -4 -8 -9 -7 -6 -5 -4 -3 -3 -4 -4 -3 -2 -2 -1 -1 -1 -2 -2 -3 -2 -2 -3 -3 -3 -4 -4 -4 -4 -4 -3 -3 -1 -1 -1 -0 0 1 2 2 3 4
-7 -7 -6 -6 -5 -4 -6 -5 -8 -10 -8 -4 -5 -4 -3 -3 -4 -3 -3 -3 -2 -2 -2 -2 -2 -3 -3 -3 -3 -3 -4 -4 -4 -5 -5 -5 -5 -5 -3 -2 -1 -1 -0 0 1 1 1 2 3
-7 -6 -5 -5 -4 -1 -5 -5 -7 -4 -2 -4 -5 -4 -3 -3 -3 -4 -4 -3 -2 -2 -2 -3 -3 -5 -5 -7 -3 -4 -4 -5 -5 -6 -6 -6 -6 -5 -5 -4 -3 -1 -1 0 1 1 2 2 3
-6 -4 -0 -1 -2 -2 -7 -5 -6 -2 -3 -3 -3 -3 -3 -3 -3 -4 -5 -5 -4 -3 -3 -4 -3 -6 -6 -7 -4 -4 -5 -5 -5 -6 -6 -6 -6 -6 -6 -5 -4 -3 -1 0 1 1 2 2 3
-9 -6 -2 -2 -4 -5 -9 -2 -1 -1 -2 -2 -2 -2 -2 -3 -3 -4 -5 -5 -5 -4 -4 -4 -6 -8 -7 -11 -7 -5 -4 -5 -5 -5 -6 -7 -7 -7 -7 -6 -5 -4 -2 -1 1 1 2 3 4
-7 -5 -7 -4 -5 -2 -5 -4 -4 -1 1 1 -1 -1 -1 -2 -2 -3 -5 -5 -6 -5 -5 -10 -18 -26 -7 -10 -14 -10 -6 -4 -4 -5 -5 -6 -7 -7 -7 -7 -6 -4 -3 -1 -1 0 1 2 4
-7 -8 -3 -2 3 1 -2 -3 2 4 2 1 2 1 -0 -1 -2 -3 -5 -6 -11 -19 -5 -20 -29 -30 -22 -14 -19 -23 -17 -7 -8 -10 -8 -5 -5 -6 -7 -7 -7 -6 -5 -5 -3 -2 -2 -0 3
-7 -4 -5 -5 -2 3 3 1 0 3 3 5 2 1 -1 -1 -3 -3 -5 -16 -24 -21 -7 -19 -23 -31 -31 -29 -27 -27 -29 -28 -22 -22 -22 -24 -15 -5 -5 -7 -7 -6 -6 -5 -5 -4 -3 -2 -0
-8 -7 -3 3 0 -0 4 6 2 4 2 3 2 1 -0 -1 -4 -5 -12 -19 -25 -23 -26 -28 -29 -28 -31 -30 -29 -27 -28 -30 -31 -33 -28 -30 -29 -26 -18 -7 -6 -6 -6 -6 -6 -5 -4 -4 -3